Flag for Germany Weather past 2 weeks in Munich, Bavaria, Germany

Now
39 °F

Scattered clouds.


Feels Like: 35 °F
Forecast: 26 / 47 °F
Wind: 6 mph from Southwest

Location: Oberpfaffenhofen

Current Time: Mar 6, 2015 at 12:14:18 PM

Latest Report: Mar 6, 2015 at 11:50 AM


Visibility: N/A

Pressure: 30.60 "Hg

Humidity: 52%

Dew point: 23 °F

Location of MunichLocation

Historic Weather in Munich — Graph

°F

Munich temperature yesterday

Maximum temperature yesterday: 37 °F (at 3:50 PM)
Minimum temperature yesterday: 32 °F (at 6:50 AM)
Average temperature yesterday: 34 °F

Past Weeks' High & Low Weather Summary

 TemperatureHumidityPressure
High57 °F (Feb 20, 3:20 PM)100% (Feb 23, 6:50 AM)30.60 "Hg (Feb 23, 6:50 AM)
Low21 °F (Feb 27, 6:50 AM)21% (Feb 20, 3:20 PM)29.47 "Hg (Feb 21, 12:50 PM)
Average36 °F73%30.04 "Hg
* Reported Feb 19 10:20 AM — Mar 6 10:50 AM, Munich, Weather by CustomWeather, © 2015

Note: Actual official high and low records may vary slightly from our data, if they occured in-between our weather recording intervals... More about our weather records

Advertising

Munich weather history for previous 24 hours

 ConditionsComfort  
Time TempWeatherWind HumidityBarometerVisibility
10:50 AM
Fri, Mar 6
39 °FPassing clouds.6 mph61%30.60 "HgN/A
10:20 AM37 °FSunny.6 mph65%30.60 "Hg10 mi
9:50 AM36 °FSunny.6 mph70%30.60 "Hg10 mi
9:20 AM34 °FSunny.5 mph81%30.60 "Hg10 mi
8:50 AM32 °FSunny.7 mph87%30.60 "Hg10 mi
8:20 AM32 °FSunny.7 mph80%30.60 "Hg10 mi
7:50 AM28 °FSunny.5 mph86%30.57 "Hg10 mi
7:20 AM27 °FSunny.6 mph86%30.57 "Hg10 mi
6:50 AM27 °FSunny.7 mph86%30.57 "Hg10 mi
7:20 PM
Thu, Mar 5
36 °FClear.7 mph60%30.54 "Hg10 mi
6:50 PM34 °FClear.6 mph65%30.51 "Hg10 mi
6:20 PM36 °FPartly cloudy.3 mph65%30.51 "HgN/A
5:50 PM36 °FPartly sunny.3 mph60%30.51 "HgN/A
5:20 PM37 °FSunny.6 mph56%30.51 "Hg10 mi
4:50 PM37 °FScattered clouds.8 mph56%30.48 "HgN/A
4:20 PM37 °FSunny.9 mph60%30.51 "Hg10 mi
3:50 PM37 °FBroken clouds.10 mph56%30.48 "HgN/A
3:20 PM36 °FPartly sunny.10 mph65%30.48 "HgN/A
2:50 PM36 °FBroken clouds.10 mph65%30.48 "HgN/A
2:20 PM36 °FBroken clouds.12 mph65%30.48 "HgN/A
1:50 PM36 °FBroken clouds.12 mph70%30.48 "HgN/A
1:20 PM34 °FSprinkles. Broken clouds.12 mph75%30.48 "HgN/A
12:50 PM34 °FSprinkles. Partly sunny.9 mph75%30.48 "HgN/A
12:20 PM34 °FPartly sunny.13 mph81%30.48 "HgN/A
Weather by CustomWeather, © 2015

See weather overviewHow to use our weather pages